sat.trackr.live / text

‹ back to catalog

STARLINK-35812

NORAD 66574 · 2025-268T

PAYLOAD ACTIVE UNKNOWN

§ Identity

Operator
Country
US
Launch date
2025-11-21
Launch site
AFETR
Launch vehicle
Mass (kg)
RCS (m²)

Purposes: comms

External: N2YO · Heavens-Above · Gunter

§ Orbital elements

Epoch: 2026-09-20T10:49:51.197664Z

Period
94.27 min
Inclination
43.0011°
Eccentricity
0.0001579
Mean motion
15.27586886 rev/d
Perigee alt
481.9 km
Apogee alt
484.1 km
Semi-major
6,861.2 km
B*
3.5620e-4
RAAN
327.3537°
Arg perigee
267.3196°
Mean anomaly
92.7475°
Rev number
4,774

§ Raw data

STARLINK-358121 66574U 25268T   26263.45128701  .00009555  00000+0  35620-3 0  99902 66574  43.0011 327.3537 0001579 267.3196  92.7475 15.27586886 47747

JSON: /api/v1/satellites/66574 · /tle

For live sub-satellite position, see the globe view (requires WebGL).

§ Visibility from observer

Set your observer location to see the next 7 days of passes ≥ 10°. The values pass through the URL so the page stays shareable.

No JS? Fill the form by hand. The geolocation button needs JavaScript.